When you browse on this site, cookies collect data to enhance your experience and personalize the content and advertising you see.
Visit our Privacy Policy to learn more. By continuing to use the site, you agree to this use of cookies and data.
  • In Hungary
  • List of Countries
  • For 7 days
  • Water Temperature
  • Weather Map
  • News
  • Weather Widgets
  • user-avatar
    Login

    Hourly Weather Bolshaya Galka

    Today, 25 January, Saturday

    Time Temperature Precipitation Wind Pressure Humidity
    00:00 -4°C° 0 mm 3 mps 741 mmHg 93%
    01:00 -4°C° 0 mm 3 mps 740 mmHg 94%
    02:00 -4°C° 0 mm 3 mps 740 mmHg 94%
    03:00 -4°C° 0.3 mm 3 mps 739 mmHg 95%
    04:00 -4°C° 0.3 mm 3 mps 739 mmHg 96%
    05:00 -4°C° 0.3 mm 3 mps 738 mmHg 97%
    06:00 -4°C° 0.5 mm 3 mps 737 mmHg 96%
    07:00 -5°C° 0.5 mm 3 mps 736 mmHg 96%
    08:00 -5°C° 0.5 mm 4 mps 735 mmHg 95%
    09:00 -5°C° 0.5 mm 4 mps 735 mmHg 95%
    10:00 -5°C° 0.5 mm 4 mps 735 mmHg 95%
    11:00 -4°C° 0 mm 4 mps 735 mmHg 95%
    12:00 -5°C° 0.3 mm 5 mps 735 mmHg 92%
    13:00 -4°C° 0.3 mm 6 mps 736 mmHg 88%
    14:00 -4°C° 0.3 mm 7 mps 737 mmHg 84%
    15:00 -6°C° 0 mm 6 mps 739 mmHg 86%
    16:00 -8°C° 0 mm 5 mps 740 mmHg 87%
    17:00 -11°C° 0 mm 5 mps 742 mmHg 88%
    18:00 -12°C° 0 mm 5 mps 742 mmHg 89%
    19:00 -13°C° 0 mm 5 mps 743 mmHg 89%
    20:00 -14°C° 0 mm 4 mps 744 mmHg 90%
    21:00 -15°C° 0 mm 4 mps 744 mmHg 90%
    22:00 -16°C° 0 mm 4 mps 744 mmHg 91%
    23:00 -16°C° 0 mm 4 mps 745 mmHg 92%

    Tomorrow, 26 January, Sunday

    Time Temperature Precipitation Wind Pressure Humidity
    00:00 -16°C° 0 mm 4 mps 745 mmHg 92%
    01:00 -15°C° 0 mm 3 mps 745 mmHg 92%
    02:00 -15°C° 0 mm 3 mps 745 mmHg 92%
    03:00 -15°C° 0 mm 3 mps 746 mmHg 92%
    04:00 -16°C° 0 mm 4 mps 746 mmHg 92%
    05:00 -16°C° 0 mm 4 mps 747 mmHg 92%
    06:00 -17°C° 0 mm 4 mps 747 mmHg 92%
    07:00 -18°C° 0 mm 4 mps 747 mmHg 92%
    08:00 -18°C° 0 mm 4 mps 748 mmHg 93%
    09:00 -18°C° 0 mm 4 mps 748 mmHg 92%
    10:00 -18°C° 0 mm 4 mps 749 mmHg 91%
    11:00 -18°C° 0 mm 4 mps 749 mmHg 90%
    12:00 -18°C° 0 mm 4 mps 749 mmHg 91%
    13:00 -17°C° 0 mm 4 mps 749 mmHg 91%
    14:00 -18°C° 0 mm 5 mps 749 mmHg 91%
    15:00 -17°C° 0.1 mm 4 mps 749 mmHg 91%
    16:00 -17°C° 0.1 mm 4 mps 750 mmHg 90%
    17:00 -17°C° 0.1 mm 4 mps 750 mmHg 90%
    18:00 -17°C° 0 mm 4 mps 750 mmHg 90%
    19:00 -17°C° 0 mm 4 mps 750 mmHg 91%
    20:00 -18°C° 0 mm 4 mps 750 mmHg 91%
    21:00 -17°C° 0 mm 4 mps 750 mmHg 92%
    22:00 -17°C° 0 mm 4 mps 749 mmHg 92%
    23:00 -17°C° 0 mm 4 mps 749 mmHg 93%

    Day after tomorrow, 27 January, Monday

    Time Temperature Precipitation Wind Pressure Humidity
    00:00 -17°C° 0.1 mm 4 mps 749 mmHg 92%
    01:00 -16°C° 0.1 mm 4 mps 749 mmHg 92%
    02:00 -16°C° 0.1 mm 4 mps 748 mmHg 91%
    03:00 -15°C° 0.1 mm 5 mps 748 mmHg 91%
    04:00 -15°C° 0.1 mm 5 mps 747 mmHg 90%
    05:00 -14°C° 0.1 mm 5 mps 746 mmHg 90%
    06:00 -14°C° 0.1 mm 5 mps 746 mmHg 89%
    07:00 -15°C° 0.1 mm 6 mps 745 mmHg 88%
    08:00 -15°C° 0.1 mm 6 mps 745 mmHg 87%
    09:00 -15°C° 0.1 mm 6 mps 744 mmHg 88%
    10:00 -14°C° 0.1 mm 6 mps 744 mmHg 89%
    11:00 -14°C° 0.1 mm 6 mps 743 mmHg 90%
    12:00 -12°C° 0.1 mm 6 mps 743 mmHg 90%
    13:00 -12°C° 0.1 mm 6 mps 743 mmHg 90%
    14:00 -11°C° 0.1 mm 6 mps 742 mmHg 90%
    15:00 -11°C° 0.1 mm 6 mps 742 mmHg 90%
    16:00 -10°C° 0.1 mm 6 mps 741 mmHg 90%
    17:00 -9°C° 0.1 mm 6 mps 741 mmHg 90%
    18:00 -9°C° 0.1 mm 6 mps 741 mmHg 90%
    19:00 -8°C° 0.1 mm 6 mps 741 mmHg 90%
    20:00 -8°C° 0.1 mm 6 mps 741 mmHg 90%
    21:00 -8°C° 0.1 mm 6 mps 741 mmHg 90%
    22:00 -7°C° 0.1 mm 5 mps 741 mmHg 90%
    23:00 -7°C° 0.1 mm 5 mps 741 mmHg 90%

    28 January, Tuesday

    Time Temperature Precipitation Wind Pressure Humidity
    00:00 -7°C° 0 mm 5 mps 741 mmHg 90%
    01:00 -8°C° 0 mm 4 mps 741 mmHg 90%
    02:00 -8°C° 0 mm 4 mps 742 mmHg 89%
    03:00 -9°C° 0 mm 4 mps 742 mmHg 90%
    04:00 -10°C° 0 mm 4 mps 742 mmHg 91%
    05:00 -10°C° 0 mm 3 mps 743 mmHg 92%
    06:00 -10°C° 0 mm 3 mps 743 mmHg 93%
    07:00 -12°C° 0 mm 3 mps 744 mmHg 93%
    08:00 -13°C° 0 mm 3 mps 744 mmHg 93%
    09:00 -14°C° 0 mm 4 mps 744 mmHg 92%
    10:00 -12°C° 0 mm 4 mps 745 mmHg 91%
    11:00 -12°C° 0 mm 4 mps 745 mmHg 90%
    12:00 -13°C° 0.1 mm 5 mps 746 mmHg 89%
    13:00 -13°C° 0.1 mm 5 mps 746 mmHg 88%
    14:00 -14°C° 0.1 mm 5 mps 747 mmHg 86%
    15:00 -14°C° 0 mm 4 mps 747 mmHg 88%
    16:00 -15°C° 0 mm 4 mps 747 mmHg 90%
    17:00 -15°C° 0 mm 3 mps 747 mmHg 92%
    18:00 -16°C° 0 mm 3 mps 747 mmHg 92%
    19:00 -17°C° 0 mm 3 mps 748 mmHg 93%
    20:00 -16°C° 0 mm 2 mps 748 mmHg 94%
    21:00 -17°C° 0 mm 2 mps 748 mmHg 95%
    22:00 -18°C° 0 mm 2 mps 748 mmHg 96%
    23:00 -17°C° 0 mm 1 mps 748 mmHg 97%

    29 January, Wednesday

    Time Temperature Precipitation Wind Pressure Humidity
    00:00 -18°C° 0 mm 1 mps 748 mmHg 97%
    01:00 -19°C° 0 mm 1 mps 749 mmHg 97%
    02:00 -19°C° 0 mm 1 mps 749 mmHg 97%
    03:00 -23°C° 0 mm 2 mps 749 mmHg 97%
    04:00 -24°C° 0 mm 2 mps 750 mmHg 97%
    05:00 -25°C° 0 mm 2 mps 750 mmHg 97%
    06:00 -25°C° 0 mm 2 mps 751 mmHg 97%
    07:00 -25°C° 0 mm 2 mps 751 mmHg 97%
    08:00 -26°C° 0 mm 2 mps 752 mmHg 96%
    09:00 -26°C° 0 mm 3 mps 753 mmHg 96%
    10:00 -25°C° 0 mm 3 mps 754 mmHg 95%
    11:00 -24°C° 0 mm 3 mps 754 mmHg 94%
    12:00 -24°C° 0 mm 3 mps 755 mmHg 94%
    13:00 -23°C° 0 mm 3 mps 756 mmHg 93%
    14:00 -23°C° 0 mm 3 mps 757 mmHg 92%
    15:00 -24°C° 0 mm 3 mps 757 mmHg 93%
    16:00 -24°C° 0 mm 3 mps 758 mmHg 93%
    17:00 -25°C° 0 mm 3 mps 759 mmHg 94%
    18:00 -25°C° 0 mm 3 mps 759 mmHg 94%
    19:00 -26°C° 0 mm 3 mps 760 mmHg 94%
    20:00 -26°C° 0 mm 3 mps 761 mmHg 94%
    21:00 -26°C° 0 mm 3 mps 762 mmHg 95%
    22:00 -26°C° 0 mm 3 mps 762 mmHg 95%
    23:00 -27°C° 0 mm 3 mps 762 mmHg 95%

    30 January, Thursday

    Time Temperature Precipitation Wind Pressure Humidity
    00:00 -27°C° 0 mm 3 mps 763 mmHg 95%
    01:00 -27°C° 0 mm 2 mps 764 mmHg 96%
    02:00 -28°C° 0 mm 2 mps 764 mmHg 96%
    03:00 -29°C° 0 mm 2 mps 765 mmHg 97%
    04:00 -29°C° 0 mm 2 mps 765 mmHg 97%
    05:00 -30°C° 0 mm 2 mps 765 mmHg 97%
    06:00 -30°C° 0 mm 2 mps 766 mmHg 97%
    07:00 -31°C° 0 mm 2 mps 767 mmHg 97%
    08:00 -31°C° 0 mm 2 mps 767 mmHg 97%
    09:00 -30°C° 0 mm 2 mps 768 mmHg 96%
    10:00 -29°C° 0 mm 2 mps 768 mmHg 95%
    11:00 -28°C° 0 mm 2 mps 769 mmHg 94%
    12:00 -27°C° 0 mm 2 mps 769 mmHg 94%
    13:00 -26°C° 0 mm 2 mps 769 mmHg 93%
    14:00 -26°C° 0 mm 2 mps 769 mmHg 93%
    15:00 -27°C° 0 mm 2 mps 770 mmHg 94%
    16:00 -29°C° 0 mm 2 mps 770 mmHg 95%
    17:00 -30°C° 0 mm 2 mps 770 mmHg 96%
    18:00 -30°C° 0 mm 2 mps 770 mmHg 96%
    19:00 -30°C° 0 mm 2 mps 770 mmHg 96%
    20:00 -29°C° 0 mm 2 mps 771 mmHg 96%
    21:00 -29°C° 0 mm 2 mps 770 mmHg 95%
    22:00 -30°C° 0 mm 3 mps 770 mmHg 94%
    23:00 -30°C° 0 mm 3 mps 770 mmHg 94%
    Show more